Probability
0 0 0 0 0 0 0 0 0 0 0 0 0 0 0 0 0 0 0 13 10 6 13 13 10 10 13 6 10 10 16 19 13 19 16 16 16 13 10 6 13 13 10
0 0 0 0 0 0 0 0 0 0 0 0 0 0 0 0 0 0 0 0 6 10 13 13 10 10 10 10 10 6 6 10 13 19 19 19 13 10 10 6 10 10 6
0 0 0 0 0 0 0 0 0 0 0 0 0 0 0 0 0 0 0 0 0 6 13 6 10 3 6 6 6 6 3 6 6 10 13 3 6 6 6 6 13 10 6
0 0 0 0 0 0 0 0 0 0 0 0 0 0 0 0 0 0 0 0 0 0 0 10 6 10 3 3 3 6 3 6 6 0 0 3 3 3 6 6 10 10 6
0 0 0 0 0 0 0 0 0 0 0 0 0 0 0 0 0 0 0 0 0 0 0 0 10 6 6 6 6 6 13 3 0 0 0 0 0 0 3 6 6 3 3
0 0 0 0 0 0 0 0 0 0 0 0 0 0 0 0 0 0 0 0 0 0 0 0 0 0 3 6 10 3 3 0 0 0 0 0 0 0 3 3 3 3 3
0 0 0 0 0 0 0 0 0 0 0 0 0 0 0 0 0 0 0 0 0 0 0 0 0 0 0 0 6 6 3 0 0 0 0 0 0 0 3 3 3 3 3
0 0 0 0 0 0 0 0 0 0 0 0 0 0 0 0 0 0 0 0 0 0 0 0 0 0 0 0 0 0 3 3 0 0 0 0 0 0 0 0 0 3 6
0 0 0 0 0 0 0 0 0 0 0 0 0 0 0 0 0 0 0 0 0 0 0 0 0 0 0 0 0 0 3 3 0 0 0 0 0 0 0 0 0 3 3
0 0 0 0 0 0 0 0 0 0 0 0 0 0 0 0 0 0 0 0 0 0 0 0 0 0 0 0 0 0 0 0 0 0 0 0 0 3 3 0 3 3 3
0 0 0 0 0 0 0 0 0 0 0 0 0 0 0 0 0 0 0 0 0 0 0 0 0 0 0 0 0 0 0 0 0 0 0 0 0 3 3 3 3 3 3
0 0 0 0 0 0 0 0 0 0 0 0 0 0 0 0 0 0 0 0 0 0 0 0 0 0 0 0 0 0 0 0 0 0 0 0 0 3 3 3 3 3 3
0 0 0 0 0 0 0 0 0 0 0 0 0 0 0 0 0 0 0 0 0 0 0 0 0 0 0 0 0 0 0 0 0 0 0 0 0 3 3 3 3 3 3
0 0 0 0 0 0 0 0 0 0 0 0 0 0 0 0 0 0 0 0 0 0 0 0 0 0 0 0 0 0 0 0 0 0 0 0 0 0 3 3 3 3 3
0 0 0 0 0 0 0 0 0 0 0 0 0 0 0 0 0 0 0 0 0 0 0 0 0 0 0 0 0 0 0 0 0 0 0 0 0 0 0 3 3 3 0
0 0 0 0 0 0 0 0 0 0 0 0 0 0 0 0 0 0 0 0 0 0 0 0 0 0 0 0 0 0 0 0 0 0 0 0 0 0 0 0 0 0 0
0 0 0 0 0 0 0 0 0 0 0 0 0 0 0 0 0 0 0 0 0 0 0 0 0 0 0 0 0 0 0 0 0 0 0 0 0 0 0 0 0 0 0
0 0 0 0 0 0 0 0 0 0 0 0 0 0 0 0 0 0 0 0 0 0 0 0 0 0 0 0 0 0 0 0 0 0 0 0 0 0 0 0 0 0 0
0 0 0 0 0 0 0 0 0 0 0 0 0 0 0 0 0 0 0 0 0 0 0 0 0 0 0 0 0 0 0 0 0 0 0 0 0 0 0 0 0 0 0
0 0 0 0 0 0 0 0 0 0 0 0 0 0 0 0 0 0 0 0 0 0 0 0 0 0 0 0 0 0 0 0 0 0 0 0 0 0 0 0 0 0 0
0 0 0 0 0 0 0 0 0 0 0 0 0 0 0 0 0 0 0 0 0 0 0 0 0 0 0 0 0 0 0 0 0 0 0 0 0 0 0 0 0 0 0
0 0 0 0 0 0 0 0 0 0 0 0 0 0 0 0 0 0 0 0 0 0 0 0 0 0 0 0 0 0 0 0 0 0 0 0 0 0 0 0 0 0 0
0 0 0 0 0 0 0 0 0 0 0 0 0 0 0 0 0 0 0 0 0 0 0 0 0 0 0 0 0 0 0 0 0 0 0 0 0 0 0 0 0 0 0
0 0 0 0 0 0 0 0 0 0 0 0 0 0 0 0 0 0 0 0 0 0 0 0 0 0 0 0 0 0 0 0 0 0 0 0 0 0 0 0 0 0 0
0 0 0 0 0 0 0 0 0 0 0 0 0 0 0 0 0 0 0 0 0 0 0 0 0 0 0 0 0 0 0 0 0 0 0 0 0 0 0 0 0 0 0
0 0 0 0 0 0 0 0 0 0 0 0 0 0 0 0 0 0 0 0 0 0 0 0 0 0 0 0 0 0 0 0 0 0 0 0 0 0 0 0 0 0 0
Height
5869 5868 5868 5868 5867 5867 5867 5867 5866 5866 5865 5865 5864 5864 5864 5863 5863 5863 5863 5863 5862 5862 5862 5861 5861 5860 5860 5860 5859 5859 5858 5859 5859 5859 5859 5859 5859 5859 5859 5859 5860 5860 5860
5867 5867 5866 5866 5865 5865 5865 5865 5864 5864 5864 5863 5863 5862 5862 5861 5861 5861 5861 5860 5860 5860 5859 5859 5859 5858 5858 5858 5857 5857 5857 5857 5856 5856 5856 5856 5856 5856 5856 5856 5857 5857 5857
5865 5864 5864 5864 5863 5863 5863 5862 5862 5862 5862 5861 5861 5860 5860 5859 5859 5859 5858 5858 5858 5857 5857 5857 5856 5856 5856 5855 5855 5854 5854 5854 5854 5853 5853 5853 5853 5853 5853 5854 5854 5854 5854
5862 5862 5861 5861 5861 5861 5860 5860 5860 5860 5859 5859 5859 5858 5858 5857 5857 5856 5856 5855 5855 5855 5855 5854 5854 5853 5853 5853 5852 5852 5852 5851 5851 5851 5850 5850 5850 5850 5850 5850 5850 5851 5851
5860 5859 5859 5859 5859 5858 5858 5858 5858 5857 5857 5857 5856 5856 5855 5855 5855 5854 5853 5853 5853 5852 5852 5852 5851 5851 5850 5850 5849 5849 5849 5848 5848 5848 5847 5847 5847 5847 5846 5846 5847 5847 5847
5858 5857 5857 5857 5856 5856 5856 5855 5855 5855 5855 5854 5854 5854 5853 5853 5852 5852 5851 5850 5850 5850 5849 5849 5848 5848 5847 5847 5846 5846 5845 5845 5845 5844 5844 5843 5843 5842 5842 5842 5843 5843 5843
5855 5855 5855 5854 5854 5854 5853 5853 5852 5852 5852 5852 5852 5851 5851 5850 5850 5849 5848 5848 5847 5847 5846 5846 5845 5845 5844 5844 5843 5843 5842 5842 5841 5840 5840 5839 5838 5838 5838 5838 5838 5838 5839
5853 5853 5852 5852 5852 5851 5851 5850 5850 5850 5849 5849 5849 5849 5848 5848 5847 5846 5846 5845 5844 5844 5843 5843 5842 5842 5841 5841 5840 5840 5839 5838 5838 5837 5835 5834 5833 5832 5832 5832 5833 5834 5834
5851 5850 5850 5850 5849 5848 5848 5847 5847 5847 5847 5847 5846 5846 5846 5845 5844 5843 5843 5842 5841 5841 5840 5840 5839 5838 5838 5837 5836 5836 5835 5835 5834 5833 5831 5830 5828 5827 5827 5828 5828 5829 5830
5849 5848 5848 5847 5847 5846 5845 5845 5845 5844 5844 5844 5843 5843 5843 5842 5841 5840 5840 5839 5838 5837 5837 5836 5835 5835 5834 5834 5833 5832 5832 5831 5830 5829 5828 5826 5824 5824 5823 5824 5824 5825 5825
5847 5846 5846 5845 5844 5843 5843 5842 5842 5842 5841 5841 5840 5839 5839 5838 5838 5837 5836 5836 5835 5834 5833 5832 5832 5831 5831 5830 5829 5828 5828 5827 5826 5825 5824 5823 5821 5820 5820 5820 5821 5821 5821
5844 5844 5843 5842 5841 5841 5840 5839 5839 5839 5838 5837 5837 5836 5835 5834 5834 5833 5833 5832 5831 5830 5829 5828 5828 5827 5827 5826 5825 5824 5823 5822 5822 5821 5820 5819 5818 5817 5817 5816 5816 5816 5816
5842 5841 5840 5840 5839 5838 5837 5836 5836 5835 5835 5834 5833 5832 5831 5830 5830 5829 5829 5828 5827 5826 5825 5824 5823 5823 5822 5821 5820 5820 5819 5818 5817 5816 5815 5814 5814 5813 5812 5812 5812 5811 5811
5839 5838 5837 5837 5836 5835 5834 5833 5832 5832 5831 5830 5829 5829 5828 5827 5826 5825 5824 5823 5822 5822 5821 5820 5819 5818 5817 5817 5816 5815 5814 5813 5812 5811 5810 5810 5809 5808 5807 5807 5806 5806 5805
5835 5834 5834 5833 5832 5831 5830 5829 5828 5828 5827 5826 5825 5824 5823 5822 5822 5821 5820 5819 5818 5817 5816 5815 5814 5813 5812 5812 5811 5810 5809 5808 5807 5806 5805 5804 5803 5803 5802 5801 5800 5800 5799
5832 5831 5830 5829 5828 5828 5827 5826 5825 5824 5823 5822 5821 5820 5819 5817 5817 5816 5815 5814 5813 5812 5811 5810 5809 5808 5807 5806 5805 5804 5804 5803 5801 5800 5799 5798 5798 5797 5796 5795 5795 5794 5793
5828 5827 5826 5825 5824 5823 5823 5821 5820 5819 5818 5817 5816 5815 5814 5813 5812 5811 5810 5809 5808 5807 5806 5805 5804 5803 5802 5801 5800 5799 5798 5797 5795 5794 5793 5793 5792 5791 5790 5789 5789 5788 5787
5824 5823 5822 5821 5820 5819 5818 5817 5815 5814 5813 5812 5811 5810 5809 5808 5807 5805 5804 5803 5802 5801 5801 5800 5799 5798 5796 5795 5794 5793 5792 5790 5789 5788 5787 5786 5785 5784 5784 5783 5782 5781 5780
5820 5819 5818 5816 5815 5814 5813 5812 5810 5809 5808 5807 5806 5805 5804 5802 5801 5800 5799 5798 5797 5796 5795 5794 5793 5792 5791 5789 5788 5786 5785 5784 5783 5782 5781 5779 5778 5777 5777 5776 5775 5774 5773
5815 5814 5813 5811 5810 5809 5807 5806 5805 5803 5802 5801 5800 5799 5798 5797 5795 5794 5793 5792 5791 5790 5789 5787 5787 5786 5785 5783 5782 5780 5779 5778 5777 5775 5774 5772 5771 5770 5769 5768 5767 5766 5765
5810 5809 5807 5806 5804 5803 5801 5800 5799 5797 5796 5795 5794 5793 5792 5790 5789 5788 5786 5785 5784 5783 5782 5781 5780 5779 5778 5777 5775 5774 5772 5771 5769 5768 5767 5765 5764 5763 5761 5760 5759 5758 5756
5804 5803 5801 5800 5798 5797 5795 5794 5792 5791 5790 5789 5788 5786 5785 5784 5782 5781 5780 5779 5778 5777 5776 5775 5773 5772 5771 5770 5768 5767 5765 5764 5762 5761 5759 5758 5756 5755 5753 5752 5750 5749 5747
5799 5797 5795 5793 5792 5790 5788 5787 5786 5784 5783 5782 5781 5780 5778 5777 5776 5774 5773 5772 5770 5769 5769 5767 5766 5765 5764 5762 5761 5759 5757 5756 5754 5753 5751 5750 5748 5746 5745 5743 5741 5740 5738
5792 5791 5788 5787 5785 5783 5782 5780 5779 5777 5776 5775 5774 5773 5771 5770 5769 5768 5766 5765 5763 5762 5761 5760 5759 5757 5756 5754 5752 5751 5749 5747 5746 5744 5742 5741 5739 5737 5735 5734 5732 5730 5728
5786 5784 5782 5780 5778 5776 5775 5773 5771 5770 5769 5767 5766 5765 5764 5763 5762 5761 5759 5758 5756 5754 5753 5752 5750 5749 5747 5745 5744 5742 5740 5739 5737 5735 5733 5732 5730 5728 5726 5724 5722 5720 5718
5778 5776 5774 5773 5771 5769 5767 5765 5763 5762 5761 5760 5759 5758 5756 5755 5754 5753 5752 5750 5748 5747 5745 5744 5742 5740 5738 5736 5734 5732 5731 5729 5727 5725 5723 5721 5720 5718 5717 5715 5713 5710 5708
Wind_Speed
8 8 9 8 8 8 8 9 8 8 8 8 8 8 8 8 8 9 9 10 10 9 9 8 8 8 8 8 9 9 9 10 11 11 11 11 11 12 13 13 13 13 14
9 9 9 9 9 9 9 9 9 8 8 8 8 8 8 8 8 8 9 9 10 10 9 9 9 9 9 9 9 9 9 10 11 11 12 12 13 13 14 14 14 14 15
9 9 9 9 9 9 9 9 9 9 8 8 8 8 8 8 8 9 9 9 9 9 9 9 10 10 10 10 10 10 10 11 11 12 12 13 13 13 14 14 15 14 15
8 9 9 10 9 9 10 9 9 9 9 9 9 9 9 9 9 9 9 9 9 10 10 10 10 11 11 11 11 11 11 11 12 12 12 13 14 14 14 15 15 15 15
8 8 9 9 10 10 10 9 9 9 9 9 9 9 9 9 9 10 10 10 10 10 10 11 11 11 11 11 12 12 12 13 13 13 13 14 14 15 16 16 16 16 16
9 8 8 9 9 10 10 10 10 10 10 10 10 9 9 10 10 11 11 11 11 11 11 11 12 12 12 12 12 12 13 14 14 14 14 15 16 16 17 17 17 17 17
8 9 9 9 9 9 10 10 10 10 10 10 10 9 9 10 11 11 11 11 11 11 11 12 12 12 13 13 13 13 14 14 14 14 15 16 16 17 17 18 18 18 18
8 8 9 9 10 10 10 10 10 10 10 10 10 10 10 11 11 11 11 12 12 12 12 12 12 12 13 14 14 14 14 14 15 16 16 16 16 17 17 18 18 18 18
9 9 9 10 10 10 10 10 10 10 10 10 10 11 11 12 11 12 12 12 13 13 13 13 13 13 13 14 14 14 14 14 15 16 16 16 15 15 15 16 16 16 17
9 9 9 9 9 9 10 10 11 11 11 11 11 11 12 12 12 12 12 13 13 13 13 14 14 14 14 15 14 14 15 15 16 16 16 16 15 15 15 16 16 16 17
9 9 9 9 9 9 10 10 11 11 11 12 12 12 12 13 13 13 13 13 13 14 14 14 15 15 15 15 15 15 15 16 17 17 17 16 16 16 16 16 16 17 18
10 10 10 10 10 10 10 11 11 11 11 12 12 12 13 14 14 14 13 14 14 15 15 15 15 15 15 16 16 16 17 17 17 17 17 17 16 16 16 17 17 18 18
11 11 11 11 11 11 12 12 12 12 13 13 13 14 14 14 14 14 14 14 15 15 15 16 16 16 16 17 17 17 18 17 17 17 17 17 17 17 17 17 18 18 19
12 12 12 12 13 13 13 13 13 14 14 14 14 14 14 15 15 16 16 16 16 16 16 16 16 16 17 17 17 18 18 18 18 18 18 17 18 18 18 18 19 20 20
12 13 13 13 13 13 13 13 14 13 14 15 16 16 16 16 16 16 17 17 16 16 16 16 17 17 17 16 17 18 18 18 18 18 18 18 18 18 19 19 20 20 20
13 13 14 13 13 13 14 14 14 14 15 16 16 16 16 17 17 17 17 17 17 17 17 17 17 18 18 18 18 18 18 19 19 19 19 19 19 19 19 20 20 20 21
14 14 15 15 14 15 15 16 16 16 16 16 17 16 16 16 17 17 17 17 17 17 17 17 18 18 19 19 18 18 19 19 19 20 20 20 20 20 20 21 21 21 21
14 15 15 16 16 16 17 17 17 17 17 17 17 17 17 17 17 17 18 18 18 17 18 18 18 19 19 20 20 19 19 19 20 20 20 21 21 22 22 22 22 22 22
15 16 16 17 17 17 18 18 17 17 18 18 18 18 18 18 18 18 18 18 18 19 19 19 19 19 20 20 21 21 20 20 21 22 21 22 22 23 23 24 24 24 24
16 17 17 18 18 18 18 18 18 18 18 19 18 19 19 19 19 19 19 19 19 19 20 20 20 20 19 20 20 21 21 21 22 23 23 23 23 23 24 25 26 26 26
18 18 19 19 19 19 18 19 19 19 19 19 19 19 20 20 20 20 20 20 20 20 21 20 20 20 20 20 21 22 22 22 22 23 23 23 24 24 25 26 27 27 27
19 19 20 20 21 21 21 20 20 20 20 20 20 20 20 20 21 21 21 20 20 20 21 21 21 22 22 22 22 23 24 24 24 24 24 24 25 26 26 27 27 28 29
20 20 20 21 21 21 21 21 21 21 21 21 21 21 21 21 21 21 21 21 21 21 21 22 22 22 23 24 24 25 25 25 25 25 26 26 26 27 27 28 28 29 29
21 21 21 22 22 22 22 22 22 22 22 22 22 22 22 21 21 22 22 22 22 22 23 23 23 24 24 25 26 26 26 26 26 26 27 27 27 28 28 29 29 30 30
22 22 22 23 22 22 23 22 22 22 23 23 23 23 23 22 23 23 23 23 23 24 24 24 25 25 26 26 27 27 27 27 27 27 28 29 29 29 29 29 30 31 31
23 24 24 24 24 23 23 23 24 24 24 24 23 23 23 23 23 24 24 24 24 24 25 25 26 27 28 28 28 28 28 28 28 29 30 30 30 30 30 30 31 32 32
Wind_Direction
267 270 267 269 270 274 277 274 272 272 271 272 272 271 272 274 272 267 264 264 264 266 270 271 273 271 269 270 268 265 258 254 256 256 257 260 259 258 256 256 252 251 251
267 268 267 269 270 273 273 273 272 269 266 269 274 275 274 274 274 270 267 268 266 266 269 271 271 270 268 265 264 260 257 257 258 258 256 258 258 258 257 255 253 253 254
268 270 268 269 270 269 270 270 271 269 269 269 272 275 276 278 276 273 271 270 270 270 270 271 271 272 271 268 264 262 260 261 259 259 257 257 256 258 258 257 255 256 254
267 269 272 271 268 269 272 273 272 271 272 272 273 274 276 278 277 274 272 273 272 271 270 272 272 273 273 270 266 263 263 263 263 263 262 261 259 260 260 259 257 257 255
274 275 277 275 271 273 274 273 272 273 275 275 274 275 275 275 277 276 274 274 275 273 273 275 274 272 271 271 268 265 265 265 267 266 265 263 263 262 262 261 259 258 258
276 276 277 277 277 277 275 273 272 272 274 275 274 276 277 278 278 276 274 274 276 277 277 278 277 273 272 272 271 267 266 267 267 266 266 265 266 265 263 262 260 258 257
278 275 273 275 277 277 278 275 273 273 275 275 274 278 279 283 282 279 275 274 277 278 278 277 278 276 276 275 272 272 269 269 269 269 269 269 269 267 264 262 258 257 257
281 281 279 278 277 277 279 276 272 272 273 273 277 280 281 282 283 281 277 277 280 280 279 278 280 282 280 277 274 272 272 271 272 271 270 271 272 269 265 261 258 259 258
281 279 278 277 278 279 280 277 273 274 274 276 279 281 282 282 283 283 280 280 282 282 281 279 279 279 280 278 276 273 273 274 273 273 273 274 271 269 266 261 260 261 262
284 282 282 279 277 278 278 275 273 273 274 275 278 281 283 283 284 282 282 282 283 283 282 279 277 276 277 276 276 274 273 273 273 274 274 273 271 270 266 262 262 263 264
286 284 284 285 283 281 279 275 273 272 273 275 278 281 282 283 284 282 281 282 283 285 283 281 279 277 277 276 275 274 274 275 274 274 275 275 273 271 268 266 265 265 266
284 284 285 287 289 286 285 282 277 276 276 277 279 281 283 284 285 283 282 282 283 284 284 282 280 278 277 277 277 276 276 275 275 275 276 276 274 271 268 266 265 265 267
283 285 287 286 286 285 282 284 281 277 277 278 280 283 282 284 284 284 282 281 281 282 282 280 279 280 278 277 275 276 278 277 277 277 276 274 273 271 269 268 269 270 270
285 286 286 287 287 286 286 283 284 280 277 278 280 283 284 285 284 283 282 282 281 280 280 279 278 279 280 279 277 277 279 278 278 277 275 274 273 273 272 272 271 271 272
286 286 286 286 286 285 284 283 282 283 281 279 280 281 281 281 281 282 284 283 282 280 279 278 279 280 280 281 281 279 279 278 278 278 277 276 275 275 274 275 274 273 273
285 285 285 286 286 285 285 286 284 283 284 283 282 282 282 283 282 284 284 284 283 282 279 278 279 281 281 282 283 281 279 279 279 279 278 277 276 275 275 274 275 275 275
285 285 287 287 286 287 287 287 285 284 284 285 283 282 283 284 283 284 283 283 283 282 280 279 279 280 282 283 283 282 281 281 281 280 279 279 277 276 276 275 275 276 277
284 285 289 288 287 287 288 288 287 286 284 285 284 285 284 284 285 283 283 282 282 281 280 280 280 279 280 281 281 283 284 284 282 282 281 280 279 277 277 277 277 277 278
285 286 288 287 287 288 288 288 288 286 285 284 283 284 286 286 285 284 284 283 283 281 281 281 281 280 280 281 281 281 282 282 281 282 281 281 281 279 278 278 279 279 279
287 285 286 286 286 286 287 287 286 286 286 285 284 284 284 286 284 284 284 283 283 282 282 282 282 281 281 281 282 282 282 282 281 281 280 281 281 280 279 280 280 280 280
287 288 287 285 284 285 286 286 286 285 284 283 284 284 285 286 286 284 283 283 282 281 281 282 282 282 281 281 281 282 282 282 281 282 282 282 282 281 281 281 280 281 281
289 290 288 286 285 285 286 285 285 284 283 283 283 284 284 286 286 286 284 284 283 282 281 281 281 282 282 281 281 281 282 281 281 281 282 283 283 283 282 281 281 281 281
291 290 289 287 286 285 284 284 283 283 282 283 283 284 286 287 286 287 286 285 283 282 281 281 282 283 283 283 282 283 283 283 283 282 282 283 283 284 285 283 281 282 282
291 290 288 287 286 286 286 285 283 282 282 283 284 285 284 284 286 287 287 286 285 284 283 283 283 284 284 285 285 285 285 284 284 284 284 284 284 284 285 284 283 282 284
289 289 288 287 286 287 287 286 286 283 282 282 282 282 283 283 284 286 288 288 286 284 285 284 283 283 284 285 285 284 284 284 284 285 285 285 284 284 285 285 285 283 284
287 287 287 287 286 286 285 285 286 285 282 281 281 282 283 284 285 285 287 289 287 285 285 285 285 284 284 284 285 285 285 284 284 285 286 285 285 285 285 286 286 285 284